Date String (YYYY-MM-DD hh:mm:ss) UTC,Instrument flags,Ambient pressure (hPa),Sample flow (lpm),Bypass flow (lpm),Sample temperature (°C),Ambient temperature (°C),ASC tube jacket temperature (°C),LED temperature (°C),Box temperature (°C),Sample RH (%),Span deviation,Mass concentration (μg/m³),Mass concentration (μg/m³),Mass concentration (μg/m³)
DateTimeUTC,F1_M11,P_M11,Q1_M11,Q2_M11,T1_M11,T2_M11,T3_M11,T4_M11,T5_M11,U1_M11,ZSPAN_M11,X0_M11,X2_M11,X1_M11
2022-10-15 13:00:00,,0827.7,5.01,0.00,27.4,25.9,00.0,36.3,29.3,11.8,0000.0,0007.07,0003.46,0003.05
2022-10-15 13:01:00,,0827.7,5.00,0.00,27.4,25.9,00.0,36.3,29.3,11.8,0000.0,0007.12,0003.49,0003.08
2022-10-15 13:02:00,,0827.7,4.99,0.00,27.4,25.9,00.0,36.3,29.3,11.9,0000.0,0006.92,0003.49,0003.10
2022-10-15 13:03:00,,0827.7,5.00,0.00,27.4,25.9,00.0,36.3,29.3,11.8,0000.0,0006.83,0003.49,0003.12
2022-10-15 13:04:00,,0827.7,5.00,0.00,27.4,25.8,00.0,36.3,29.2,11.7,0000.0,0006.73,0003.47,0003.13
2022-10-15 13:05:00,,0827.7,4.99,0.00,27.4,25.8,00.0,36.3,29.2,11.7,0000.0,0006.54,0003.46,0003.14
2022-10-15 13:06:00,,0827.7,4.99,0.00,27.4,25.8,00.0,36.3,29.2,11.7,0000.0,0006.66,0003.48,0003.15
2022-10-15 13:07:00,,0827.7,5.00,0.00,27.4,25.8,00.0,36.3,29.2,11.7,0000.0,0006.63,0003.45,0003.15
2022-10-15 13:08:00,,0827.7,5.01,0.00,27.4,25.8,00.0,36.3,29.1,11.7,0000.0,0006.54,0003.44,0003.14
2022-10-15 13:09:00,,0827.8,4.99,0.00,27.4,25.7,00.0,36.3,29.1,11.7,0000.0,0005.96,0003.46,0003.14
2022-10-15 13:10:00,,0827.8,5.00,0.00,27.4,25.7,00.0,36.3,29.2,11.7,0000.0,0005.61,0003.48,0003.16
2022-10-15 13:11:00,,0827.9,5.01,0.00,27.4,25.7,00.0,36.2,29.1,11.7,0000.0,0005.52,0003.49,0003.16
2022-10-15 13:12:00,,0827.9,5.00,0.00,27.3,25.7,00.0,36.2,29.1,11.7,0000.0,0005.35,0003.47,0003.16
2022-10-15 13:13:00,,0827.9,4.99,0.00,27.3,25.7,00.0,36.2,29.2,11.5,0000.0,0005.32,0003.45,0003.15
2022-10-15 13:14:00,,0827.9,4.99,0.00,27.3,25.7,00.0,36.2,29.1,11.4,0000.0,0005.33,0003.44,0003.13
2022-10-15 13:15:00,,0827.8,5.00,0.00,27.3,25.6,00.0,36.2,29.1,11.4,0000.0,0005.21,0003.43,0003.12
2022-10-15 13:16:00,,0828.0,4.99,0.00,27.3,25.6,00.0,36.2,29.1,11.5,0000.0,0005.30,0003.44,0003.10
2022-10-15 13:17:00,,0827.9,4.99,0.00,27.3,25.6,00.0,36.2,29.1,11.5,0000.0,0005.22,0003.43,0003.06
2022-10-15 13:18:00,,0827.9,5.00,0.00,27.3,25.6,00.0,36.2,29.1,11.5,0000.0,0005.15,0003.43,0003.06
2022-10-15 13:19:00,,0827.9,5.00,0.00,27.3,25.6,00.0,36.2,29.1,11.5,0000.0,0005.11,0003.42,0003.05
2022-10-15 13:20:00,,0827.9,5.00,0.00,27.3,25.6,00.0,36.2,29.0,11.5,0000.0,0004.92,0003.38,0003.02
2022-10-15 13:21:00,,0828.0,5.00,0.00,27.3,25.5,00.0,36.2,29.0,11.5,0000.0,0004.91,0003.38,0003.00
2022-10-15 13:22:00,,0828.0,5.00,0.00,27.2,25.5,00.0,36.2,29.0,11.4,0000.0,0005.52,0003.35,0002.97
2022-10-15 13:23:00,,0828.0,5.00,0.00,27.2,25.5,00.0,36.2,29.0,11.4,0000.0,0005.78,0003.37,0002.96
2022-10-15 13:24:00,,0828.0,5.00,0.00,27.2,25.5,00.0,36.2,29.0,11.3,0000.0,0005.81,0003.37,0002.96
2022-10-15 13:25:00,,0828.0,5.00,0.00,27.2,25.5,00.0,36.2,29.0,11.3,0000.0,0005.95,0003.37,0002.96
2022-10-15 13:26:00,,0828.0,5.01,0.00,27.2,25.5,00.0,36.1,29.0,11.3,0000.0,0005.89,0003.35,0002.96
2022-10-15 13:27:00,,0828.0,5.01,0.00,27.2,25.5,00.0,36.1,29.0,11.3,0000.0,0005.83,0003.33,0002.96
2022-10-15 13:28:00,,0828.1,4.99,0.00,27.2,25.5,00.0,36.1,28.9,11.3,0000.0,0006.13,0003.33,0002.96
2022-10-15 13:29:00,,0828.1,5.01,0.00,27.2,25.5,00.0,36.1,28.9,11.4,0000.0,0006.70,0003.34,0002.95
2022-10-15 13:30:00,,0828.1,4.99,0.00,27.2,25.5,00.0,36.1,29.0,11.4,0000.0,0006.93,0003.34,0002.94
2022-10-15 13:31:00,,0828.1,5.00,0.00,27.2,25.5,00.0,36.1,29.0,11.3,0000.0,0006.94,0003.33,0002.93
2022-10-15 13:32:00,,0828.1,5.01,0.00,27.2,25.5,00.0,36.1,29.0,11.3,0000.0,0007.56,0003.33,0002.94
2022-10-15 13:33:00,,0828.1,5.00,0.00,27.2,25.5,00.0,36.1,29.0,11.3,0000.0,0007.82,0003.35,0002.94
2022-10-15 13:34:00,,0828.2,4.99,0.00,27.1,25.5,00.0,36.1,28.9,11.3,0000.0,0007.60,0003.32,0002.92
2022-10-15 13:35:00,,0828.2,5.00,0.00,27.1,25.5,00.0,36.1,29.0,11.3,0000.0,0007.68,0003.34,0002.91
2022-10-15 13:36:00,,0828.2,4.99,0.00,27.1,25.5,00.0,36.1,29.0,11.3,0000.0,0007.56,0003.32,0002.91
2022-10-15 13:37:00,,0828.2,5.00,0.00,27.1,25.5,00.0,36.1,28.9,11.3,0000.0,0007.60,0003.33,0002.90
2022-10-15 13:38:00,,0828.2,5.00,0.00,27.1,25.5,00.0,36.0,28.9,11.4,0000.0,0008.56,0003.35,0002.90
2022-10-15 13:39:00,,0828.2,5.01,0.00,27.1,25.5,00.0,36.0,28.9,11.3,0000.0,0008.44,0003.35,0002.89
2022-10-15 13:40:00,,0828.2,5.00,0.00,27.1,25.5,00.0,36.0,28.9,11.3,0000.0,0008.23,0003.36,0002.89
2022-10-15 13:41:00,,0828.3,4.99,0.00,27.1,25.5,00.0,36.0,28.9,11.5,0000.0,0008.05,0003.37,0002.90
2022-10-15 13:42:00,,0828.3,5.00,0.00,27.1,25.5,00.0,36.0,28.9,11.5,0000.0,0008.56,0003.41,0002.93
2022-10-15 13:43:00,,0828.3,5.01,0.00,27.1,25.5,00.0,36.0,28.9,11.6,0000.0,0008.25,0003.42,0002.93
2022-10-15 13:44:00,,0828.3,4.98,0.00,27.1,25.5,00.0,36.0,28.9,11.8,0000.0,0007.65,0003.41,0002.92
2022-10-15 13:45:00,,0828.3,5.00,0.00,27.1,25.5,00.0,36.0,28.9,11.7,0000.0,0007.68,0003.42,0002.94
2022-10-15 13:46:00,,0828.3,4.99,0.00,27.1,25.6,00.0,36.0,28.9,11.7,0000.0,0007.64,0003.40,0002.96
2022-10-15 13:47:00,,0828.4,5.00,0.00,27.1,25.6,00.0,36.0,28.9,11.6,0000.0,0007.69,0003.41,0002.96
2022-10-15 13:48:00,,0828.4,5.01,0.00,27.1,25.6,00.0,36.0,28.9,11.4,0000.0,0007.78,0003.44,0002.96
2022-10-15 13:49:00,,0828.4,5.01,0.00,27.1,25.5,00.0,36.0,28.9,11.3,0000.0,0006.53,0003.45,0002.96
2022-10-15 13:50:00,,0828.5,4.99,0.00,27.1,25.6,00.0,36.0,29.0,11.3,0000.0,0006.49,0003.45,0002.96
2022-10-15 13:51:00,,0828.5,5.00,0.00,27.1,25.6,00.0,36.0,29.0,11.3,0000.0,0006.48,0003.43,0002.96
2022-10-15 13:52:00,,0828.5,4.99,0.00,27.1,25.5,00.0,36.0,28.9,11.3,0000.0,0006.46,0003.42,0002.96
2022-10-15 13:53:00,,0828.5,4.99,0.00,27.1,25.6,00.0,36.0,28.9,11.5,0000.0,0005.69,0003.39,0002.95
2022-10-15 13:54:00,,0828.5,5.00,0.00,27.1,25.6,00.0,36.0,29.0,11.7,0000.0,0005.52,0003.40,0002.95
2022-10-15 13:55:00,,0828.9,4.99,0.00,27.1,25.6,00.0,36.0,29.0,11.7,0000.0,0005.52,0003.40,0002.97
2022-10-15 13:56:00,,0829.0,5.01,0.00,27.1,25.6,00.0,36.0,28.9,12.0,0000.0,0005.40,0003.39,0002.95
2022-10-15 13:57:00,,0829.1,5.01,0.00,27.1,25.6,00.0,36.0,28.9,11.7,0000.0,0005.93,0003.38,0002.93
2022-10-15 13:58:00,,0829.0,5.00,0.00,27.1,25.6,00.0,36.0,28.9,11.7,0000.0,0007.45,0003.37,0002.94
2022-10-15 13:59:00,,0828.6,5.00,0.00,27.1,25.6,00.0,36.0,28.9,11.7,0000.0,0007.28,0003.34,0002.94
